[Date Prev][Date Next][Thread Prev][Thread Next] - [Date Index][Thread Index][Author Index]

2 Line ISS Keps 1-7



ISS
1 25544U 98067A   04007.17753550  .00017760  00000-0  17199-3 0  9793
2 25544  51.6301  70.0775 0006732 351.5550 108.4607 15.66459375292905


----
Via the sarex mailing list at AMSAT.ORG courtesy of AMSAT-NA.
To unsubscribe, send "unsubscribe sarex" to Majordomo@amsat.org



AMSAT Top AMSAT Home